TimeEST,TemperatureF,Dew PointF,Humidity,Sea Level PressureIn,VisibilityMPH,Wind Direction,Wind SpeedMPH,Gust SpeedMPH,PrecipitationIn,Events,Conditions,WindDirDegrees,DateUTC
12:55 AM,10.9,3.9,73,30.03,10.0,SE,3.5,-,N/A,,Overcast,130,2013-02-03 05:55:00
1:55 AM,12.9,3.9,67,30.02,10.0,SSE,4.6,-,N/A,,Overcast,160,2013-02-03 06:55:00
2:55 AM,12.9,3.9,67,30.01,10.0,SSE,4.6,-,N/A,,Overcast,150,2013-02-03 07:55:00
3:55 AM,12.9,3.9,67,29.98,10.0,SE,4.6,-,N/A,,Overcast,140,2013-02-03 08:55:00
4:55 AM,14.0,3.9,64,29.95,10.0,SE,6.9,-,N/A,,Overcast,140,2013-02-03 09:55:00
5:55 AM,14.0,5.0,67,29.94,10.0,SSE,4.6,-,N/A,,Overcast,160,2013-02-03 10:55:00
6:55 AM,14.0,6.1,71,29.93,4.0,SSE,8.1,-,0.00,Snow,Light Snow,160,2013-02-03 11:55:00
7:04 AM,14.0,6.8,73,29.88,3.0,South,8.1,-,0.00,Snow,Light Snow,170,2013-02-03 12:04:00
7:32 AM,14.0,8.6,79,29.89,1.0,South,3.5,-,0.00,Snow,Light Snow,180,2013-02-03 12:32:00
7:45 AM,14.0,8.6,79,29.90,0.8,Calm,Calm,-,0.01,Snow,Light Snow,0,2013-02-03 12:45:00
7:55 AM,14.0,9.0,80,29.95,0.8,Calm,Calm,-,0.01,Snow,Light Snow,0,2013-02-03 12:55:00
8:10 AM,14.0,8.6,79,29.90,0.5,Calm,Calm,-,0.01,Snow,Snow,0,2013-02-03 13:10:00
8:20 AM,14.0,8.6,79,29.90,0.2,Calm,Calm,-,0.02,Snow,Heavy Snow,0,2013-02-03 13:20:00
8:39 AM,14.0,10.4,86,29.90,0.5,Calm,Calm,-,0.03,Fog-Snow,Snow,0,2013-02-03 13:39:00
8:55 AM,14.0,10.0,84,29.94,0.5,SE,3.5,-,0.03,Fog-Snow,Snow,130,2013-02-03 13:55:00
9:12 AM,14.0,10.4,86,29.89,0.8,SE,3.5,-,0.01,Snow,Light Snow,130,2013-02-03 14:12:00
9:42 AM,14.0,10.4,86,29.89,0.5,Calm,Calm,-,0.02,Fog-Snow,Snow,0,2013-02-03 14:42:00
9:55 AM,17.1,12.0,81,29.93,0.8,Calm,Calm,-,0.02,Snow,Light Snow,0,2013-02-03 14:55:00
9:58 AM,17.6,12.2,79,29.89,1.0,WNW,4.6,-,0.00,Snow,Light Snow,300,2013-02-03 14:58:00
10:05 AM,17.6,12.2,79,29.88,0.5,WNW,8.1,-,0.00,Snow,Snow,290,2013-02-03 15:05:00
10:55 AM,19.0,12.9,77,29.92,0.5,WNW,10.4,-,0.02,Snow,Snow,290,2013-02-03 15:55:00
11:04 AM,19.4,12.2,74,29.88,1.0,WNW,12.7,-,0.00,Snow,Light Snow,290,2013-02-03 16:04:00
11:21 AM,19.4,12.2,74,29.88,0.8,WNW,11.5,-,0.00,Snow,Light Snow,290,2013-02-03 16:21:00
11:31 AM,19.4,12.2,74,29.88,1.0,WNW,9.2,-,0.01,Snow,Light Snow,290,2013-02-03 16:31:00
11:55 AM,19.0,12.0,74,29.92,1.0,WNW,12.7,-,0.01,Snow,Light Snow,290,2013-02-03 16:55:00
12:55 PM,19.0,10.9,71,29.92,1.0,WNW,13.8,20.7,0.01,Snow,Light Snow,290,2013-02-03 17:55:00
1:07 PM,19.4,10.4,68,29.88,1.0,WNW,16.1,24.2,0.00,Snow,Light Snow,290,2013-02-03 18:07:00
1:32 PM,19.4,8.6,63,29.88,2.5,WNW,12.7,21.9,0.00,Snow,Light Snow,300,2013-02-03 18:32:00
1:39 PM,19.4,10.4,68,29.88,2.5,WNW,15.0,21.9,0.00,Snow,Light Snow,300,2013-02-03 18:39:00
1:55 PM,19.0,10.0,68,29.93,2.5,WNW,13.8,24.2,0.00,Snow,Light Snow,290,2013-02-03 18:55:00
2:55 PM,19.0,10.0,68,29.94,2.5,NW,8.1,20.7,0.00,Snow,Light Snow,310,2013-02-03 19:55:00
3:55 PM,19.0,8.1,62,29.97,2.5,NW,10.4,20.7,0.00,Snow,Light Snow,310,2013-02-03 20:55:00
4:55 PM,19.0,8.1,62,29.98,2.5,WNW,15.0,23.0,0.00,Snow,Light Snow,300,2013-02-03 21:55:00
5:46 PM,19.4,8.6,63,29.95,5.0,WNW,10.4,-,0.00,,Haze,300,2013-02-03 22:46:00
5:55 PM,19.0,8.1,62,29.99,7.0,WNW,10.4,-,0.00,,Overcast,300,2013-02-03 22:55:00
6:55 PM,19.0,9.0,65,30.00,9.0,NW,10.4,-,0.00,Snow,Light Snow,310,2013-02-03 23:55:00
7:55 PM,19.9,8.1,60,30.01,8.0,NW,8.1,18.4,0.00,Snow,Light Snow,310,2013-02-04 00:55:00
8:25 PM,19.4,8.6,63,29.98,9.0,NW,10.4,18.4,0.00,Snow,Light Snow,310,2013-02-04 01:25:00
8:55 PM,19.9,8.1,60,30.02,9.0,WNW,8.1,18.4,0.00,Snow,Light Snow,290,2013-02-04 01:55:00
9:55 PM,19.9,8.1,60,30.03,9.0,NW,8.1,-,0.00,Snow,Light Snow,310,2013-02-04 02:55:00
10:55 PM,19.9,8.1,60,30.02,9.0,NW,9.2,-,0.00,Snow,Light Snow,310,2013-02-04 03:55:00
11:55 PM,19.9,9.0,62,30.03,10.0,WNW,6.9,-,0.00,,Overcast,290,2013-02-04 04:55:00